This is the latest recevied weather packets stored in our database for station/object W0DXV. If no packets are shown the sender has not sent any weather packets the latest 10 day(s).
| Time | Temp. | Humidity | Pressure | Rain* | Wind** | Luminosity | Snow |
|---|---|---|---|---|---|---|---|
| 1777464266 | 14.44° C | 99% | 1009.7 hPa | 0 mm | - | 26 W/m² | - |
| 1777463961 | 14.44° C | 99% | 1009.6 hPa | 0 mm | - | 24 W/m² | - |
| 1777463657 | 14.44° C | 99% | 1009.7 hPa | 0 mm | - | 34 W/m² | - |
| 1777463351 | 14.44° C | 99% | 1009.5 hPa | 0 mm | - | 30 W/m² | - |
| 1777463048 | 13.89° C | 99% | 1009.7 hPa | 0 mm | - | 28 W/m² | - |
| 1777462743 | 13.89° C | 99% | 1009.9 hPa | 0 mm | - | 30 W/m² | - |
| 1777462439 | 13.89° C | 99% | 1009.9 hPa | 0 mm | - | 25 W/m² | - |
| 1777462136 | 13.89° C | 99% | 1010 hPa | 0 mm | - | 24 W/m² | - |
| 1777461832 | 13.33° C | 99% | 1009.9 hPa | 0 mm | - | 21 W/m² | - |
| 1777461528 | 13.33° C | 99% | 1010.3 hPa | 0 mm | - | 15 W/m² | - |
| 1777461224 | 13.33° C | 99% | 1010.2 hPa | 0 mm | - | 12 W/m² | - |
| 1777460919 | 13.33° C | 99% | 1010.3 hPa | 0 mm | - | 12 W/m² | - |
| 1777460615 | 13.33° C | 99% | 1010.5 hPa | 0 mm | - | 10 W/m² | - |
| 1777460311 | 13.33° C | 99% | 1010.6 hPa | 0 mm | - | 8 W/m² | - |
| 1777460008 | 13.33° C | 99% | 1010.7 hPa | 0 mm | - | 7 W/m² | - |
| 1777459705 | 13.33° C | 99% | 1010.8 hPa | 0 mm | - | 4 W/m² | - |
| 1777459402 | 13.33° C | 99% | 1010.9 hPa | 0 mm | - | 3 W/m² | - |
| 1777459099 | 12.78° C | 99% | 1010.9 hPa | 0 mm | - | 2 W/m² | - |
| 1777458797 | 12.78° C | 99% | 1011 hPa | 0 mm | - | 1 W/m² | - |
| 1777458493 | 12.78° C | 99% | 1011 hPa | 0 mm | - | 0 W/m² | - |
| 1777458190 | 12.78° C | 99% | 1011.1 hPa | 0 mm | - | 0 W/m² | - |
| 1777457885 | 12.78° C | 99% | 1010.9 hPa | 0 mm | - | 0 W/m² | - |
| 1777457581 | 12.78° C | 99% | 1010.6 hPa | 0 mm | - | 0 W/m² | - |
| 1777457276 | 12.78° C | 99% | 1010.6 hPa | 0 mm | - | 0 W/m² | - |
| 1777456972 | 12.22° C | 99% | 1010.7 hPa | 0 mm | - | 0 W/m² | - |
* Rain latest hour (hover to see other rain measurements)
** Current wind speed in m/s (hover to see current wind gust speed)